Voltar ao catálogo

STARLINK-3131

AtivoComunicaçõesVLEO
NORAD 49427·PAYLOAD·🇺🇸 United States

Lançado Nov 13, 2021 de Cape Canaveral Space Force Station

Loading…

Próximas Passagens (próximas 24 horas)

TLE

AtualizadoSource: CelesTrak SupGP

Época: Sep 14, 2026, 20:12 UTC

1 49427C 21104V   26257.84215278 -.00006843  00000+0 -21999-3 0  2575
2 49427  53.1569  87.1633 0001536  87.2914 355.9674 15.31715766    13

Acompanhe STARLINK-3131 em tempo real com AllMySat

Download on the App Store